EW2106 Weather Reports


time (UTC)temp
F
wind
direction
speed
knots
gust
knots
rain 1hr
in
rain 24hr
in
rain mn
in
humidity
%
barometer
mb
20260507212055 64 267 1.7 8.7 0.00 0.13 0.08 31 1004.3
20260507211602 63 327 2.6 9.6 0.00 0.13 0.08 30 1004.3
20260507211057 63 355 3.5 11.3 0.00 0.13 0.08 30 1004.4
20260507210559 63 240 4.3 11.3 0.00 0.13 0.08 30 1004.3
20260507210110 63 265 4.3 10.4 0.00 0.13 0.08 30 1004.3
20260507205558 63 350 3.5 10.4 0.00 0.13 0.08 31 1004.3
20260507205056 63 294 3.5 10.4 0.00 0.13 0.08 29 1004.3
20260507204558 63 283 3.5 9.6 0.00 0.13 0.08 30 1004.3
20260507204100 63 340 4.3 9.6 0.00 0.13 0.08 29 1004.3
20260507203558 63 320 2.6 10.4 0.00 0.13 0.08 31 1004.3
20260507203125 63 270 4.3 10.4 0.00 0.13 0.08 29 1004.2
20260507202557 64 323 3.5 12.2 0.00 0.13 0.08 30 1004.3
20260507202057 63 340 4.3 12.2 0.00 0.13 0.08 30 1004.3
20260507201557 63 250 3.5 12.2 0.00 0.13 0.08 30 1004.2
20260507201058 63 234 5.2 11.3 0.00 0.13 0.08 29 1004.2
20260507200601 64 312 4.3 8.7 0.00 0.13 0.08 31 1004.1
20260507200101 63 355 4.3 10.4 0.00 0.13 0.08 30 1004.3
20260507195555 63 309 4.3 10.4 0.00 0.13 0.08 32 1004.3
20260507195057 63 287 4.3 13.0 0.00 0.13 0.08 31 1004.4
20260507194618 63 12 4.3 13.0 0.00 0.13 0.08 31 1004.3
20260507194057 63 348 4.3 13.0 0.00 0.13 0.08 31 1004.4
20260507193557 63 360 5.2 13.0 0.00 0.13 0.08 33 1004.5
20260507193103 63 22 4.3 12.2 0.00 0.13 0.08 31 1004.5
20260507192557 63 305 6.1 12.2 0.00 0.13 0.08 30 1004.6
20260507192057 64 311 3.5 10.4 0.00 0.13 0.08 31 1004.6
20260507191555 64 316 4.3 11.3 0.00 0.13 0.08 31 1004.7
20260507191055 63 255 5.2 11.3 0.00 0.13 0.08 32 1004.6
20260507190557 63 341 4.3 10.4 0.00 0.13 0.08 31 1004.7
20260507185555 63 262 3.5 12.2 0.00 0.13 0.08 33 1004.7
20260507185057 63 329 4.3 12.2 0.00 0.13 0.08 33 1004.9
20260507184558 63 340 3.5 10.4 0.00 0.13 0.08 33 1004.8
20260507184055 63 293 4.3 9.6 0.00 0.13 0.08 35 1004.9
20260507183558 62 302 0.9 9.6 0.00 0.13 0.08 37 1005.0
20260507183056 62 280 1.7 9.6 0.00 0.13 0.08 43 1005.1
20260507182555 61 0 0.0 7.0 0.00 0.13 0.08 52 1005.0
20260507182057 61 218 2.6 6.1 0.00 0.13 0.08 54 1005.0
20260507181555 61 159 0.9 6.1 0.00 0.13 0.08 55 1005.2
20260507181057 60 158 0.0 6.1 0.00 0.13 0.08 60 1005.3
20260507180558 59 0 0.9 6.1 0.00 0.13 0.08 62 1005.3
20260507180055 58 0 1.7 7.8 0.00 0.13 0.08 62 1005.3
20260507175557 58 0 0.9 8.7 0.00 0.13 0.08 61 1005.3
20260507175054 58 0 1.7 8.7 0.00 0.13 0.08 60 1005.1
20260507174602 58 142 4.3 7.8 0.00 0.13 0.08 59 1005.4
20260507174058 57 184 1.7 6.1 0.00 0.13 0.08 59 1005.3
20260507173557 57 136 0.9 6.1 0.00 0.13 0.08 60 1005.5
20260507173129 58 0 1.7 7.8 0.00 0.13 0.08 60 1005.5
20260507172557 58 165 1.7 7.8 0.00 0.13 0.08 61 1005.5
20260507172056 57 96 0.9 11.3 0.00 0.13 0.08 61 1005.5
20260507171559 57 111 1.7 11.3 0.00 0.13 0.08 60 1005.6
20260507171055 57 138 2.6 8.7 0.00 0.13 0.08 57 1005.7
20260507170557 58 169 3.5 11.3 0.00 0.13 0.08 56 1005.6
20260507170058 58 178 5.2 11.3 0.00 0.13 0.08 58 1005.5
20260507165554 58 136 3.5 9.6 0.00 0.13 0.08 60 1005.6
20260507165057 57 150 2.6 7.8 0.00 0.13 0.08 60 1005.6
20260507164557 57 175 3.5 7.8 0.00 0.13 0.08 60 1005.7
20260507164109 56 144 3.5 12.2 0.00 0.13 0.08 61 1005.9
20260507163557 56 142 5.2 12.2 0.00 0.13 0.08 59 1005.9
20260507163059 56 173 3.5 8.7 0.00 0.13 0.08 61 1005.9
20260507162557 56 144 2.6 11.3 0.00 0.13 0.08 60 1006.0
20260507162056 56 173 4.3 11.3 0.00 0.13 0.08 60 1006.0
20260507161614 57 190 3.5 9.6 0.00 0.13 0.08 59 1006.2
20260507161055 58 139 2.6 8.7 0.00 0.13 0.08 56 1006.2
20260507160555 59 148 3.5 9.6 0.00 0.13 0.08 55 1006.1
20260507160105 60 190 2.6 9.6 0.00 0.13 0.08 56 1006.2
20260507155555 60 127 1.7 8.7 0.00 0.13 0.08 56 1006.2
20260507155058 59 170 1.7 7.0 0.00 0.13 0.08 56 1006.4
20260507154602 59 95 1.7 7.0 0.00 0.13 0.08 58 1006.4
20260507154055 58 170 1.7 7.0 0.00 0.13 0.08 59 1006.3
20260507153554 57 190 2.6 7.8 0.00 0.13 0.08 60 1006.4
20260507153059 57 157 3.5 7.8 0.00 0.13 0.08 60 1006.4
20260507152557 57 138 2.6 7.0 0.00 0.13 0.08 59 1006.5
20260507152058 58 173 0.9 6.1 0.00 0.13 0.08 60 1006.5
20260507151558 58 0 0.9 7.0 0.00 0.13 0.08 60 1006.6
20260507151057 58 146 0.9 7.0 0.00 0.13 0.08 61 1006.6
20260507150557 58 48 0.9 5.2 0.00 0.13 0.08 60 1006.6
20260507150057 58 273 1.7 6.1 0.00 0.13 0.08 60 1006.7
20260507145554 57 280 0.9 7.0 0.00 0.13 0.08 60 1006.7
20260507145057 57 338 1.7 7.0 0.00 0.13 0.08 61 1006.7
20260507144612 57 5 2.6 6.1 0.00 0.13 0.08 62 1006.7
20260507144058 56 13 1.7 5.2 0.00 0.13 0.08 63 1006.8
20260507143558 56 35 1.7 4.3 0.00 0.13 0.08 62 1007.0
20260507143102 56 333 0.9 4.3 0.00 0.13 0.08 64 1006.9
20260507142557 56 331 0.0 3.5 0.00 0.13 0.08 64 1006.8
20260507142057 56 313 0.9 3.5 0.00 0.13 0.08 65 1006.9
20260507141601 56 275 0.9 6.1 0.00 0.13 0.08 66 1006.9
20260507141057 55 337 0.9 6.1 0.00 0.13 0.08 66 1006.9
20260507140553 55 330 1.7 4.3 0.00 0.13 0.08 66 1006.8
20260507140056 55 19 1.7 5.2 0.00 0.13 0.08 68 1006.9
20260507135600 54 0 0.0 6.1 0.00 0.13 0.08 69 1007.0
20260507135057 54 22 1.7 6.1 0.00 0.13 0.08 66 1006.9
20260507134557 54 48 1.7 5.2 0.00 0.13 0.08 68 1006.9
20260507134054 54 295 1.7 7.0 0.00 0.13 0.08 69 1006.9
20260507133632 53 298 2.6 7.0 0.00 0.13 0.08 68 1007.0
20260507133139 53 304 1.7 7.0 0.00 0.13 0.08 70 1007.1
20260507132554 53 328 1.7 7.8 0.00 0.13 0.08 73 1007.2
20260507132054 53 280 2.6 7.8 0.00 0.13 0.08 73 1007.2
20260507131559 52 355 0.9 6.1 0.00 0.13 0.08 75 1007.4
20260507131054 52 355 2.6 6.1 0.00 0.13 0.08 74 1007.5
20260507130558 51 349 1.7 6.1 0.00 0.13 0.08 77 1007.5
20260507125557 51 0 0.9 4.3 0.00 0.13 0.08 80 1007.6
20260507125054 50 5 1.7 4.3 0.00 0.13 0.08 81 1007.5
20260507124607 50 277 0.9 7.0 0.00 0.13 0.08 82 1007.5
20260507124057 49 298 0.9 7.0 0.00 0.13 0.08 82 1007.2
20260507123555 49 343 2.6 8.7 0.00 0.13 0.08 81 1007.2
20260507123058 49 346 1.7 8.7 0.00 0.13 0.08 82 1007.3
20260507122556 49 334 2.6 8.7 0.00 0.13 0.08 82 1007.2
20260507122055 49 321 0.9 4.3 0.00 0.13 0.08 83 1007.3
20260507121555 49 360 0.9 4.3 0.00 0.13 0.08 84 1007.3
20260507121055 49 5 0.9 5.2 0.00 0.13 0.08 84 1007.3
20260507120557 48 300 1.7 5.2 0.00 0.13 0.08 84 1007.3
20260507120055 48 332 0.9 6.1 0.00 0.13 0.08 85 1007.3
20260507115555 48 11 1.7 6.1 0.00 0.13 0.08 85 1007.2
20260507115054 48 303 0.9 7.0 0.00 0.13 0.08 86 1007.1
20260507114610 48 329 0.9 7.0 0.00 0.13 0.08 86 1007.2
20260507114054 48 352 1.7 7.0 0.00 0.13 0.08 86 1007.2
20260507113556 48 32 0.9 3.5 0.00 0.13 0.08 87 1007.1
20260507113055 48 332 0.9 3.5 0.00 0.13 0.08 87 1007.1
20260507112557 48 12 0.0 4.3 0.00 0.13 0.08 88 1007.0
20260507112057 48 0 0.0 4.3 0.00 0.13 0.08 88 1006.9
20260507111603 48 355 0.9 4.3 0.01 0.13 0.08 88 1006.9
20260507111056 48 5 0.0 2.6 0.01 0.13 0.08 89 1006.9
20260507110558 47 342 0.0 2.6 0.01 0.13 0.08 89 1006.9
20260507110057 48 0 0.0 2.6 0.02 0.13 0.08 89 1007.2
20260507105554 48 0 0.0 2.6 0.02 0.13 0.08 89 1007.2
20260507105057 48 0 0.0 2.6 0.02 0.13 0.08 89 1007.3
20260507104559 48 318 0.0 2.6 0.02 0.13 0.08 88 1007.2
20260507104054 48 0 0.0 2.6 0.02 0.13 0.08 88 1006.8
20260507103554 48 0 0.0 3.5 0.03 0.13 0.08 88 1006.9
20260507103058 48 0 0.9 3.5 0.04 0.13 0.08 87 1006.9
20260507102557 48 298 0.9 3.5 0.05 0.13 0.08 87 1007.0
20260507102054 48 342 0.9 3.5 0.06 0.13 0.08 87 1006.9
20260507101555 48 303 0.9 6.1 0.05 0.12 0.07 87 1006.8
20260507101056 48 5 0.9 7.0 0.05 0.12 0.07 86 1006.8
20260507100558 48 292 1.7 7.0 0.05 0.12 0.07 86 1006.8
20260507100058 48 327 2.6 8.7 0.04 0.11 0.06 86 1006.6
20260507095559 48 305 2.6 8.7 0.04 0.11 0.06 86 1006.5
20260507095056 48 345 3.5 8.7 0.04 0.11 0.06 86 1006.6
20260507094601 48 340 2.6 7.8 0.04 0.11 0.06 86 1006.6
20260507094058 48 325 2.6 7.0 0.05 0.11 0.06 86 1006.6
20260507093557 49 281 2.6 8.7 0.04 0.10 0.05 85 1006.6
20260507093057 49 355 3.5 8.7 0.03 0.09 0.04 85 1006.5
20260507092559 49 292 1.7 5.2 0.02 0.08 0.03 85 1006.6
20260507092058 49 327 1.7 12.2 0.01 0.07 0.02 85 1006.5
20260507091555 49 310 2.6 12.2 0.01 0.07 0.02 84 1006.8
20260507091054 50 338 3.5 9.6 0.01 0.07 0.02 83 1006.6
20260507090558 50 310 2.6 9.6 0.01 0.07 0.02 83 1006.6
20260507090057 50 314 3.5 7.8 0.02 0.07 0.02 84 1006.7
20260507085558 50 319 1.7 8.7 0.02 0.07 0.02 84 1006.5
20260507085100 50 272 1.7 10.4 0.02 0.07 0.02 84 1006.1
20260507084559 50 336 3.5 10.4 0.02 0.07 0.02 84 1006.1
20260507084057 50 324 4.3 10.4 0.01 0.06 0.01 84 1006.3
20260507083555 50 336 2.6 8.7 0.01 0.06 0.01 85 1006.1
20260507083056 50 355 1.7 8.7 0.01 0.06 0.01 84 1005.9
20260507082557 50 348 2.6 14.8 0.01 0.06 0.01 84 1006.1
20260507082055 50 310 3.5 14.8 0.01 0.06 0.01 84 1006.1
20260507081557 51 325 4.3 14.8 0.01 0.06 0.01 84 1006.2
20260507081057 51 348 5.2 11.3 0.01 0.06 0.01 84 1006.2
20260507080556 51 344 5.2 11.3 0.01 0.06 0.01 83 1006.1
20260507080101 51 308 3.5 11.3 0.00 0.05 0.00 82 1006.0
20260507075555 52 325 4.3 10.4 0.00 0.05 0.00 81 1006.0
20260507075055 52 323 3.5 9.6 0.00 0.05 0.00 82 1006.0
20260507074558 52 5 3.5 9.6 0.00 0.05 0.00 81 1005.9
20260507074055 52 360 1.7 10.4 0.00 0.05 0.00 82 1005.5
20260507073557 52 304 1.7 10.4 0.00 0.05 0.00 81 1005.6
20260507073109 52 355 1.7 9.6 0.00 0.05 0.00 81 1005.7
20260507072555 52 350 2.6 9.6 0.00 0.05 0.00 81 1005.6
20260507072058 52 290 2.6 8.7 0.00 0.05 0.00 81 1005.7
20260507071610 52 309 3.5 8.7 0.00 0.05 0.00 81 1005.6
20260507071055 52 307 3.5 8.7 0.00 0.05 0.00 82 1005.7
20260507070556 53 327 2.6 8.7 0.00 0.05 0.00 83 1005.6
20260507070105 53 275 1.7 8.7 0.00 0.05 0.00 84 1005.6
20260507065600 53 325 2.6 8.7 0.00 0.05 0.00 85 1005.6
20260507065055 53 327 2.6 7.8 0.00 0.05 0.00 85 1005.6
20260507064600 53 282 0.9 7.0 0.00 0.05 0.00 86 1005.5
20260507064055 53 320 0.9 7.0 0.00 0.05 0.00 86 1005.2
20260507063554 53 306 1.7 7.0 0.00 0.05 0.00 85 1005.2
20260507063100 53 260 2.6 7.0 0.00 0.05 0.00 85 1005.2
20260507062555 54 326 0.9 5.2 0.00 0.05 0.00 86 1005.3
20260507062055 54 331 0.9 4.3 0.00 0.05 0.00 86 1005.4
20260507061556 54 341 1.7 4.3 0.00 0.05 0.00 86 1005.6
20260507061054 54 304 0.9 6.1 0.00 0.05 0.00 86 1005.7
20260507060554 54 267 1.7 7.0 0.00 0.05 0.00 87 1005.5
20260507060100 54 197 1.7 9.6 0.00 0.05 0.00 88 1005.5
20260507055556 54 306 2.6 9.6 0.00 0.05 0.00 89 1005.7
20260507055057 54 263 2.6 8.7 0.00 0.05 0.00 90 1005.8
20260507054554 54 322 1.7 7.0 0.00 0.05 0.00 91 1005.6
20260507054059 54 330 1.7 8.7 0.00 0.05 0.00 90 1005.7
20260507053556 54 344 1.7 8.7 0.00 0.05 0.00 90 1005.6
20260507053116 54 321 3.5 9.6 0.00 0.05 0.00 90 1005.4
20260507052554 55 286 3.5 9.6 0.00 0.05 0.00 90 1005.4
20260507052055 55 324 3.5 9.6 0.00 0.05 0.00 90 1005.6
20260507051555 56 350 4.3 9.6 0.00 0.05 0.00 90 1005.6
20260507051054 57 330 2.6 11.3 0.00 0.05 0.00 92 1005.4
20260507050555 57 348 3.5 11.3 0.00 0.05 0.00 93 1005.3
20260507050056 57 332 2.6 9.6 0.00 0.05 0.00 94 1005.3
20260507045600 57 323 3.5 9.6 0.00 0.05 0.00 94 1005.3
20260507045055 57 272 2.6 6.1 0.00 0.05 0.00 95 1005.2
20260507044622 57 360 1.7 6.1 0.00 0.05 0.00 95 1005.3
20260507044056 57 0 1.7 6.1 0.00 0.05 0.00 95 1005.5
20260507043554 56 297 0.9 2.6 0.00 0.05 0.00 95 1005.5
20260507043056 56 236 0.0 2.6 0.00 0.05 0.00 95 1005.2
20260507042557 56 0 0.0 6.1 0.00 0.05 0.00 95 1005.3
20260507042056 56 262 0.0 6.1 0.00 0.05 0.00 95 1005.3
20260507041557 56 211 0.9 6.1 0.00 0.05 0.00 95 1005.6
20260507041057 56 0 0.9 2.6 0.00 0.05 0.00 95 1005.6
20260507040556 56 0 0.9 2.6 0.00 0.05 0.00 95 1005.5
20260507035554 56 167 0.0 4.3 0.00 0.05 0.05 94 1005.4
20260507035058 56 191 0.0 4.3 0.00 0.05 0.05 94 1005.5
20260507034603 56 266 0.9 5.2 0.00 0.05 0.05 94 1005.6
20260507034055 56 309 0.9 9.6 0.00 0.05 0.05 94 1005.6
20260507033557 56 0 0.9 9.6 0.00 0.05 0.05 94 1005.4
20260507033124 56 187 0.9 3.5 0.00 0.05 0.05 94 1005.2
20260507032557 56 137 0.0 7.0 0.00 0.05 0.05 94 1005.1
20260507032058 56 0 0.9 7.0 0.00 0.05 0.05 94 1005.1
20260507031602 56 103 0.9 4.3 0.00 0.05 0.05 94 1004.8
20260507031057 56 133 0.0 4.3 0.00 0.05 0.05 94 1004.8
20260507030557 56 32 0.0 4.3 0.00 0.05 0.05 94 1004.9
20260507030109 56 120 0.9 5.2 0.00 0.05 0.05 94 1005.0
20260507025556 55 132 0.9 7.0 0.00 0.05 0.05 94 1004.9
20260507025054 55 149 1.7 9.6 0.00 0.05 0.05 94 1005.0
20260507024609 55 182 2.6 10.4 0.00 0.05 0.05 94 1005.1
20260507024054 55 292 1.7 10.4 0.00 0.05 0.05 94 1005.1
20260507023559 55 148 0.9 9.6 0.00 0.05 0.05 94 1005.1
20260507023057 55 183 1.7 9.6 0.00 0.05 0.05 94 1005.1
20260507022557 55 189 0.0 7.0 0.00 0.05 0.05 94 1005.0
20260507022057 55 10 0.9 7.0 0.00 0.05 0.05 94 1004.9
20260507021558 55 224 1.7 7.0 0.00 0.05 0.05 93 1005.1
20260507021100 55 290 1.7 7.8 0.00 0.05 0.05 94 1005.2
20260507020557 55 88 0.0 7.8 0.00 0.05 0.05 93 1005.2
20260507015557 55 277 1.7 9.6 0.00 0.05 0.05 93 1005.2
20260507015100 55 279 0.9 6.1 0.00 0.05 0.05 93 1005.3
20260507014605 55 302 1.7 8.7 0.00 0.05 0.05 93 1005.5
20260507014058 55 0 0.9 10.4 0.00 0.05 0.05 93 1005.2
20260507013600 55 0 3.5 10.4 0.00 0.05 0.05 93 1005.4
20260507013102 55 137 1.7 8.7 0.00 0.05 0.05 93 1005.5
20260507012555 55 277 0.9 7.0 0.00 0.05 0.05 93 1005.5
20260507012057 55 0 2.6 7.8 0.00 0.05 0.05 93 1005.6
20260507011559 55 355 1.7 7.8 0.01 0.05 0.05 93 1005.6
20260507011059 55 293 2.6 8.7 0.01 0.05 0.05 93 1005.6
20260507010558 55 214 1.7 9.6 0.01 0.05 0.05 93 1005.6
20260507010056 55 221 2.6 9.6 0.01 0.05 0.05 93 1005.5
20260507005557 55 5 0.9 7.0 0.01 0.05 0.05 93 1005.5
20260507005056 55 248 1.7 7.8 0.01 0.05 0.05 93 1005.7
20260507004558 55 100 1.7 12.2 0.01 0.05 0.05 93 1005.7
20260507004057 55 234 1.7 12.2 0.02 0.05 0.05 93 1005.6
20260507003558 55 125 2.6 12.2 0.02 0.05 0.05 93 1005.5
20260507003104 55 126 3.5 12.2 0.03 0.05 0.05 93 1005.5
20260507002558 55 0 1.7 8.7 0.03 0.05 0.05 93 1005.5
20260507002057 55 170 2.6 10.4 0.03 0.05 0.05 93 1005.4
20260507001556 55 140 2.6 10.4 0.02 0.04 0.04 93 1005.4
20260507001059 55 99 1.7 8.7 0.02 0.04 0.04 93 1005.4
20260507000601 55 53 2.6 10.4 0.02 0.04 0.04 93 1005.5
20260507000100 55 144 1.7 10.4 0.02 0.04 0.04 93 1005.6
20260506235556 56 161 3.5 10.4 0.02 0.04 0.04 93 1005.4
20260506235057 55 108 2.6 10.4 0.02 0.04 0.04 93 1005.4
20260506234605 56 106 4.3 15.6 0.02 0.04 0.04 93 1005.2
20260506234058 56 112 4.3 15.6 0.01 0.03 0.03 93 1005.3
20260506233558 56 96 4.3 10.4 0.01 0.03 0.03 92 1005.4
20260506233058 56 103 2.6 10.4 0.00 0.02 0.02 93 1005.6
20260506232557 56 123 3.5 7.8 0.00 0.02 0.02 92 1005.6
20260506232100 56 119 3.5 11.3 0.00 0.02 0.02 93 1005.5
20260506231557 56 146 2.6 13.0 0.00 0.02 0.02 93 1005.6
20260506231056 56 127 3.5 13.0 0.00 0.02 0.02 92 1005.6
20260506230557 56 138 3.5 10.4 0.00 0.02 0.02 93 1005.8
20260506225555 56 142 4.3 12.2 0.00 0.02 0.02 92 1005.7
20260506225055 56 150 4.3 12.2 0.01 0.02 0.02 92 1005.7
20260506224602 56 128 6.1 12.2 0.01 0.02 0.02 91 1005.6
20260506224056 57 124 3.5 8.7 0.01 0.02 0.02 91 1005.8
20260506223555 57 153 4.3 14.8 0.01 0.02 0.02 91 1005.8
20260506223055 57 173 3.5 14.8 0.01 0.02 0.02 91 1005.9
20260506222558 57 96 2.6 11.3 0.01 0.02 0.02 91 1006.0
20260506222057 57 173 4.3 11.3 0.01 0.02 0.02 91 1005.9
20260506221600 57 107 2.6 13.0 0.01 0.02 0.02 91 1006.1
20260506221057 57 36 3.5 13.0 0.01 0.02 0.02 91 1006.2
20260506220557 57 136 3.5 9.6 0.02 0.02 0.02 90 1006.3
20260506220101 58 148 3.5 8.7 0.02 0.02 0.02 90 1006.4
20260506215558 58 109 2.6 8.7 0.02 0.02 0.02 90 1006.4
20260506215057 58 150 2.6 8.7 0.01 0.01 0.01 90 1006.5
20260506214559 58 134 3.5 8.7 0.01 0.01 0.01 90 1006.3
20260506214057 58 182 1.7 10.4 0.01 0.01 0.01 90 1006.5
20260506213558 58 151 4.3 10.4 0.01 0.01 0.01 89 1006.4
20260506213055 58 142 3.5 11.3 0.01 0.01 0.01 89 1006.5
20260506212555 58 134 3.5 11.3 0.01 0.01 0.01 89 1006.5